DW5861 Weather Reports


Display with metric or nautical units.
time (UTC)temp
F
wind
direction
speed
MPH
gust
MPH
rain 1hr
in
rain 24hr
in
rain mn
in
humidity
%
barometer
mb
20260508231503 76 36 1.0 3.0 0.00 0.77 0.77 84 1009.4
20260508231003 76 85 1.0 3.0 0.00 0.77 0.77 82 1009.6
20260508230503 76 124 1.0 3.0 0.00 0.77 0.77 81 1009.6
20260508230024 76 156 1.0 3.0 0.00 0.77 0.77 81 1009.7
20260508225503 76 160 2.0 3.0 0.00 0.77 0.77 80 1009.6
20260508225003 77 155 2.0 6.0 0.00 0.77 0.77 81 1009.6
20260508224503 76 151 2.0 8.0 0.00 0.77 0.77 80 1009.7
20260508224003 76 143 2.0 8.0 0.00 0.77 0.77 81 1009.7
20260508223524 76 147 1.0 4.0 0.00 0.77 0.77 82 1009.7
20260508223003 76 138 1.0 3.0 0.00 0.77 0.77 82 1009.7
20260508222503 76 151 1.0 4.0 0.00 0.77 0.77 82 1009.7
20260508222003 76 152 1.0 5.0 0.00 0.77 0.77 81 1009.7
20260508221503 76 165 2.0 5.0 0.00 0.77 0.77 81 1009.6
20260508221003 76 175 2.0 6.0 0.00 0.77 0.77 80 1009.7
20260508220503 76 169 3.0 7.0 0.00 0.77 0.77 80 1009.7
20260508220003 76 169 3.0 7.0 0.00 0.77 0.77 80 1009.7
20260508215503 76 165 2.0 6.0 0.00 0.77 0.77 82 1009.7
20260508215024 75 157 1.0 3.0 0.00 0.77 0.77 82 1009.8
20260508214503 75 145 1.0 3.0 0.00 0.77 0.77 83 1009.9
20260508214003 75 151 1.0 5.0 0.00 0.77 0.77 83 1009.9
20260508213503 74 159 1.0 5.0 0.00 0.77 0.77 84 1010.0
20260508213003 74 153 1.0 3.0 0.00 0.77 0.77 85 1010.1
20260508212503 74 34 1.0 2.0 0.00 0.77 0.77 84 1010.0
20260508212024 74 83 1.0 3.0 0.00 0.77 0.77 83 1010.1
20260508211503 74 111 1.0 3.0 0.00 0.77 0.77 84 1010.1
20260508211024 74 22 1.0 3.0 0.00 0.77 0.77 84 1010.2
20260508210503 75 68 1.0 3.0 0.00 0.77 0.77 84 1010.1
20260508210003 75 86 1.0 5.0 0.00 0.77 0.77 83 1010.2
20260508205503 74 24 1.0 5.0 0.00 0.77 0.77 83 1010.3
20260508205003 74 8 1.0 4.0 0.00 0.77 0.77 84 1010.4
20260508204503 74 22 2.0 4.0 0.00 0.77 0.77 83 1010.5
20260508204003 75 64 1.0 4.0 0.00 0.77 0.77 84 1010.7
20260508203503 75 26 1.0 4.0 0.00 0.77 0.77 84 1010.8
20260508203003 74 291 1.0 4.0 0.00 0.77 0.77 84 1010.8
20260508202503 75 177 2.0 5.0 0.00 0.77 0.77 82 1010.9
20260508202003 75 155 3.0 6.0 0.00 0.77 0.77 81 1010.9
20260508201503 75 155 2.0 6.0 0.00 0.77 0.77 79 1010.9
20260508201003 75 156 2.0 7.0 0.00 0.77 0.77 81 1010.8
20260508200504 74 113 1.0 7.0 0.00 0.77 0.77 84 1010.9
20260508200003 72 25 1.0 4.0 0.00 0.77 0.77 85 1010.9
20260508195503 71 31 2.0 4.0 0.00 0.77 0.77 86 1010.9
20260508195003 71 96 2.0 4.0 0.00 0.77 0.77 85 1010.8
20260508194503 72 150 2.0 4.0 0.00 0.77 0.77 84 1010.9
20260508194024 72 119 2.0 5.0 0.00 0.77 0.77 85 1010.9
20260508193503 71 121 2.0 5.0 0.00 0.77 0.77 86 1010.9
20260508193003 70 151 2.0 4.0 0.00 0.77 0.77 87 1010.9
20260508192503 70 28 1.0 3.0 0.00 0.77 0.77 89 1011.1
20260508192003 69 25 1.0 4.0 0.00 0.77 0.77 91 1011.0
20260508191503 69 25 1.0 4.0 0.00 0.77 0.77 90 1011.0
20260508191003 68 5 2.0 3.0 0.00 0.77 0.77 90 1011.0
20260508190503 69 352 1.0 3.0 0.00 0.77 0.77 90 1010.9
20260508190003 69 28 1.0 3.0 0.00 0.77 0.77 91 1011.1
20260508185503 69 29 2.0 3.0 0.00 0.77 0.77 90 1011.2
20260508185003 69 28 2.0 3.0 0.00 0.77 0.77 90 1011.2
20260508184504 68 28 1.0 3.0 0.00 0.77 0.77 92 1011.2
20260508184024 68 38 1.0 3.0 0.00 0.77 0.77 92 1011.3
20260508183503 68 25 1.0 4.0 0.00 0.77 0.77 92 1011.5
20260508183003 68 357 1.0 4.0 0.00 0.77 0.77 92 1011.6
20260508182503 67 352 1.0 4.0 0.00 0.77 0.77 92 1011.9
20260508182003 67 1 1.0 4.0 0.00 0.77 0.77 92 1012.0
20260508181524 67 10 1.0 2.0 0.00 0.77 0.77 92 1012.1
20260508181003 67 23 1.0 3.0 0.00 0.77 0.77 91 1012.2
20260508180503 68 47 1.0 3.0 0.00 0.77 0.77 91 1012.4
20260508180003 68 58 1.0 4.0 0.00 0.77 0.77 92 1012.5
20260508175503 67 44 2.0 4.0 0.00 0.77 0.77 92 1012.5
20260508175003 67 28 2.0 3.0 0.00 0.77 0.77 92 1012.6
20260508174524 67 354 1.0 3.0 0.00 0.77 0.77 93 1012.6
20260508174003 67 31 1.0 4.0 0.00 0.77 0.77 93 1012.6
20260508173503 67 47 2.0 4.0 0.02 0.77 0.77 94 1012.6
20260508173024 67 9 1.0 4.0 0.18 0.77 0.77 95 1012.6
20260508172524 66 359 1.0 4.0 0.27 0.77 0.77 95 1012.6
20260508172003 66 15 2.0 7.0 0.28 0.77 0.77 96 1012.6
20260508171503 65 8 2.0 7.0 0.29 0.77 0.77 96 1012.7
20260508171003 65 360 1.0 6.0 0.29 0.77 0.77 96 1012.8
20260508170524 64 352 1.0 4.0 0.29 0.77 0.77 95 1012.8
20260508170003 64 354 1.0 4.0 0.29 0.77 0.77 95 1012.9
20260508165503 64 358 1.0 3.0 0.29 0.77 0.77 95 1012.9
20260508165003 64 343 1.0 3.0 0.30 0.77 0.77 95 1013.1
20260508164524 64 336 1.0 2.0 0.33 0.77 0.77 95 1013.2
20260508164003 64 343 1.0 3.0 0.37 0.77 0.77 95 1013.3
20260508163503 64 12 1.0 3.0 0.36 0.75 0.75 95 1013.3
20260508163003 64 13 1.0 3.0 0.21 0.59 0.59 95 1013.3
20260508162524 64 331 1.0 2.0 0.19 0.50 0.51 95 1013.7
20260508162003 64 324 1.0 4.0 0.18 0.49 0.49 95 1013.9
20260508161503 64 342 1.0 4.0 0.17 0.48 0.48 95 1013.6
20260508161003 64 349 1.0 2.0 0.18 0.48 0.48 95 1013.5
20260508160524 64 299 1.0 2.0 0.21 0.48 0.48 95 1013.6
20260508160003 64 154 1.0 3.0 0.24 0.48 0.48 95 1013.6
20260508155503 63 196 1.0 3.0 0.31 0.48 0.48 95 1013.6
20260508155003 63 276 1.0 3.0 0.32 0.47 0.47 95 1013.8
20260508154503 63 40 1.0 3.0 0.29 0.44 0.44 95 1013.8
20260508154003 63 352 1.0 3.0 0.25 0.40 0.40 94 1013.9
20260508153504 63 336 1.0 3.0 0.24 0.39 0.39 94 1014.2
20260508153003 63 310 1.0 3.0 0.23 0.38 0.38 94 1014.1
20260508152503 63 300 1.0 3.0 0.16 0.31 0.31 94 1014.2
20260508152004 63 298 1.0 5.0 0.16 0.31 0.31 94 1014.1
20260508151504 63 337 1.0 5.0 0.16 0.31 0.31 94 1014.0
20260508151004 62 46 1.0 4.0 0.15 0.30 0.30 94 1013.9
20260508150504 62 45 1.0 3.0 0.12 0.27 0.27 94 1013.5
20260508150005 63 56 1.0 2.0 0.09 0.24 0.24 94 1013.6
20260508145504 63 138 1.0 2.0 0.02 0.17 0.17 94 1013.7
20260508145004 62 181 1.0 3.0 0.00 0.15 0.15 94 1014.3
20260508144504 62 186 1.0 3.0 0.00 0.15 0.15 94 1014.5
20260508144025 62 273 1.0 2.0 0.00 0.15 0.15 93 1013.9
20260508143504 62 340 1.0 3.0 0.03 0.15 0.15 93 1013.7
20260508143025 62 352 1.0 3.0 0.10 0.15 0.15 93 1013.7
20260508142504 62 2 1.0 2.0 0.13 0.15 0.15 93 1014.1
20260508142004 62 350 1.0 2.0 0.15 0.15 0.15 93 1014.4
20260508141504 62 355 1.0 4.0 0.15 0.15 0.15 93 1014.7
20260508141004 62 137 2.0 4.0 0.15 0.15 0.15 93 1014.8
20260508140504 62 27 2.0 6.0 0.15 0.15 0.15 93 1014.7
20260508140005 62 325 2.0 6.0 0.15 0.15 0.15 93 1014.7
20260508135504 62 190 2.0 5.0 0.15 0.15 0.15 92 1014.3
20260508135004 62 146 2.0 5.0 0.15 0.15 0.15 92 1013.2
20260508134525 62 90 2.0 5.0 0.15 0.15 0.15 92 1013.5
20260508134004 62 134 1.0 3.0 0.15 0.15 0.15 91 1014.4
20260508133505 63 137 2.0 3.0 0.12 0.12 0.12 91 1015.0
20260508133004 63 99 2.0 3.0 0.05 0.05 0.05 91 1014.7
20260508132504 63 219 2.0 3.0 0.02 0.02 0.02 91 1015.5
20260508132004 63 191 1.0 3.0 0.00 0.00 0.00 90 1015.7
20260508131504 63 215 1.0 3.0 0.00 0.00 0.00 90 1014.4
20260508131004 63 282 1.0 2.0 0.00 0.00 0.00 90 1014.3
20260508130525 63 202 1.0 2.0 0.00 0.00 0.00 90 1014.3
20260508130004 63 335 1.0 3.0 0.00 0.00 0.00 90 1013.1
20260508125504 63 332 1.0 3.0 0.00 0.00 0.00 90 1013.1
20260508125004 63 346 1.0 3.0 0.00 0.00 0.00 90 1012.9
20260508124504 63 356 1.0 3.0 0.00 0.00 0.00 90 1012.9
20260508124004 63 340 1.0 3.0 0.00 0.00 0.00 90 1013.0
20260508123504 63 330 1.0 3.0 0.00 0.00 0.00 90 1013.5
20260508123004 63 344 1.0 3.0 0.00 0.00 0.00 90 1012.9
20260508122504 63 9 0.0 2.0 0.00 0.00 0.00 90 1013.3
20260508122025 63 32 0.0 2.0 0.00 0.00 0.00 90 1013.5
20260508121504 63 349 1.0 3.0 0.00 0.00 0.00 90 1013.3
20260508121004 63 334 1.0 3.0 0.00 0.00 0.00 91 1013.4
20260508120504 62 325 0.0 2.0 0.00 0.00 0.00 91 1013.6
20260508120025 62 311 0.0 1.0 0.00 0.00 0.00 90 1013.6
20260508115504 62 339 1.0 2.0 0.00 0.00 0.00 91 1013.7
20260508115004 62 336 1.0 2.0 0.00 0.00 0.00 90 1013.7
20260508114504 62 325 1.0 2.0 0.00 0.00 0.00 91 1013.5
20260508114004 62 331 1.0 2.0 0.00 0.00 0.00 91 1013.3
20260508113504 62 341 1.0 2.0 0.00 0.00 0.00 91 1013.1
20260508113005 62 354 1.0 2.0 0.00 0.00 0.00 91 1013.3
20260508112504 62 9 0.0 2.0 0.00 0.00 0.00 91 1013.4
20260508112004 62 15 0.0 2.0 0.00 0.00 0.00 91 1013.7
20260508111504 62 283 0.0 2.0 0.00 0.00 0.00 91 1014.0
20260508111004 62 316 1.0 3.0 0.00 0.00 0.00 91 1014.1
20260508110504 62 332 1.0 3.0 0.00 0.00 0.00 91 1014.2
20260508110004 62 356 1.0 2.0 0.00 0.00 0.00 91 1013.9
20260508105525 62 322 1.0 2.0 0.00 0.00 0.00 91 1013.7
20260508105004 62 315 1.0 2.0 0.00 0.00 0.00 91 1014.0
20260508104525 62 320 1.0 2.0 0.00 0.00 0.00 91 1013.7
20260508104004 62 33 1.0 2.0 0.00 0.00 0.00 91 1013.7
20260508103504 62 345 1.0 2.0 0.00 0.00 0.00 91 1014.0
20260508103004 61 306 1.0 2.0 0.00 0.00 0.00 91 1014.0
20260508102504 61 307 0.0 2.0 0.00 0.00 0.00 90 1013.8
20260508102004 61 11 1.0 2.0 0.00 0.00 0.00 90 1013.7
20260508101504 62 14 1.0 2.0 0.00 0.00 0.00 90 1013.5
20260508101004 62 2 1.0 2.0 0.00 0.00 0.00 90 1013.8
20260508100504 62 343 1.0 2.0 0.00 0.00 0.00 91 1014.1
20260508100004 61 332 1.0 2.0 0.00 0.00 0.00 91 1014.3
20260508095504 61 348 1.0 2.0 0.00 0.00 0.00 91 1014.3
20260508095004 61 334 1.0 2.0 0.00 0.00 0.00 91 1014.1
20260508094504 61 314 0.0 2.0 0.00 0.00 0.00 90 1014.2
20260508094004 61 315 0.0 2.0 0.00 0.00 0.00 90 1014.0
20260508093504 61 325 1.0 2.0 0.00 0.00 0.00 91 1014.0
20260508093004 61 349 1.0 2.0 0.00 0.00 0.00 90 1013.9
20260508092504 61 336 1.0 2.0 0.00 0.00 0.00 90 1013.7
20260508092025 61 342 1.0 2.0 0.00 0.00 0.00 90 1013.8
20260508091504 61 356 1.0 2.0 0.00 0.00 0.00 90 1013.5
20260508091004 61 5 0.0 2.0 0.00 0.00 0.00 89 1013.5
20260508090504 61 349 1.0 2.0 0.00 0.00 0.00 89 1013.5
20260508090004 61 330 0.0 2.0 0.00 0.00 0.00 89 1013.6
20260508085504 61 299 0.0 2.0 0.00 0.00 0.00 89 1013.7
20260508085004 61 312 1.0 2.0 0.00 0.00 0.00 89 1013.6
20260508084504 62 320 1.0 2.0 0.00 0.00 0.00 89 1013.6
20260508084025 61 183 0.0 1.0 0.00 0.00 0.00 89 1013.6
20260508083504 62 320 0.0 1.0 0.00 0.00 0.00 89 1013.7
20260508083004 62 331 1.0 2.0 0.00 0.00 0.00 90 1013.8
20260508082525 61 315 1.0 2.0 0.00 0.00 0.00 90 1014.1
20260508082004 61 301 1.0 2.0 0.00 0.00 0.00 90 1014.1
20260508081504 61 317 1.0 2.0 0.00 0.00 0.00 90 1014.0
20260508081004 61 356 1.0 2.0 0.00 0.00 0.00 90 1013.8
20260508080504 61 1 1.0 2.0 0.00 0.00 0.00 90 1013.7
20260508080004 61 352 1.0 2.0 0.00 0.00 0.00 90 1014.1
20260508075504 61 349 1.0 2.0 0.00 0.00 0.00 90 1014.3
20260508075004 61 342 1.0 2.0 0.00 0.00 0.00 90 1014.3
20260508074504 61 342 1.0 2.0 0.00 0.00 0.00 90 1014.5
20260508074004 61 345 1.0 2.0 0.00 0.00 0.00 90 1014.4
20260508073525 61 341 0.0 1.0 0.00 0.00 0.00 90 1014.5
20260508073004 61 339 0.0 1.0 0.00 0.00 0.00 90 1014.4
20260508072504 61 337 0.0 2.0 0.00 0.00 0.00 90 1014.4
20260508072004 61 343 1.0 2.0 0.00 0.00 0.00 90 1014.4
20260508071504 61 1 1.0 2.0 0.00 0.00 0.00 89 1014.3
20260508071004 61 3 1.0 2.0 0.00 0.00 0.00 89 1014.3
20260508070504 61 252 0.0 1.0 0.00 0.00 0.00 89 1014.4
20260508070004 61 212 0.0 2.0 0.00 0.00 0.00 89 1014.5
20260508065504 61 213 0.0 2.0 0.00 0.00 0.00 89 1014.5
20260508065004 61 342 0.0 2.0 0.00 0.00 0.00 89 1014.3
20260508064504 61 353 1.0 2.0 0.00 0.00 0.00 89 1014.2
20260508064004 61 352 1.0 2.0 0.00 0.00 0.00 89 1014.3
20260508063504 61 345 1.0 2.0 0.00 0.00 0.00 89 1014.5
20260508063004 61 328 1.0 1.0 0.00 0.00 0.00 88 1014.6
20260508062505 61 306 0.0 2.0 0.00 0.00 0.00 89 1014.6
20260508062004 61 303 1.0 2.0 0.00 0.00 0.00 89 1014.6
20260508061504 61 298 1.0 2.0 0.00 0.00 0.00 89 1014.3
20260508061025 61 327 1.0 2.0 0.00 0.00 0.00 88 1014.3
20260508060504 61 7 1.0 2.0 0.00 0.00 0.00 88 1014.1
20260508060004 61 340 1.0 2.0 0.00 0.00 0.00 88 1014.1
20260508055504 61 325 1.0 2.0 0.00 0.00 0.00 89 1014.5
20260508055004 61 325 1.0 2.0 0.00 0.00 0.00 89 1014.6
20260508054504 61 36 0.0 2.0 0.00 0.00 0.00 88 1014.4
20260508054004 61 110 0.0 2.0 0.00 0.00 0.00 88 1014.4
20260508053504 61 336 1.0 2.0 0.00 0.00 0.00 88 1014.7
20260508053004 61 315 1.0 2.0 0.00 0.00 0.00 88 1015.0
20260508052504 61 322 0.0 2.0 0.00 0.00 0.00 88 1014.9
20260508052004 61 326 0.0 1.0 0.00 0.00 0.00 88 1014.5
20260508051504 62 298 0.0 2.0 0.00 0.00 0.00 88 1014.8
20260508051003 62 306 0.0 2.0 0.00 0.00 0.00 88 1014.9
20260508050504 62 30 0.0 2.0 0.00 0.00 0.00 87 1014.5
20260508050004 62 338 1.0 2.0 0.00 0.00 0.00 87 1014.5
20260508045525 62 315 1.0 2.0 0.00 0.00 0.00 88 1014.8
20260508045004 62 16 1.0 2.0 0.00 0.00 0.00 87 1014.6
20260508044504 62 1 1.0 2.0 0.00 0.00 0.00 87 1014.3
20260508044004 62 312 1.0 2.0 0.00 0.00 0.00 87 1014.7
20260508043504 62 318 1.0 2.0 0.00 0.00 0.00 87 1014.6
20260508043004 62 330 1.0 2.0 0.00 0.00 0.00 87 1014.2
20260508042504 62 352 0.0 1.0 0.00 0.00 0.00 86 1014.1
20260508042004 62 10 0.0 1.0 0.00 0.00 0.00 86 1014.2
20260508041504 62 5 0.0 1.0 0.00 0.00 0.00 86 1014.4
20260508041004 62 16 0.0 2.0 0.00 0.00 0.00 86 1014.6
20260508040504 62 21 0.0 2.0 0.00 0.00 0.00 86 1014.4
20260508040004 62 49 0.0 1.0 0.00 0.00 0.00 86 1014.6
20260508035504 62 321 0.0 1.0 0.00 0.00 0.00 86 1014.8
20260508035025 62 193 0.0 1.0 0.00 0.00 0.00 86 1014.7
20260508034504 62 165 0.0 2.0 0.00 0.00 0.00 86 1014.7
20260508034004 62 329 1.0 2.0 0.00 0.00 0.00 86 1014.5
20260508033504 62 340 0.0 2.0 0.00 0.00 0.00 87 1014.5
20260508033004 62 345 0.0 2.0 0.00 0.00 0.00 86 1014.6
20260508032504 62 339 1.0 2.0 0.00 0.00 0.00 87 1014.6
20260508032004 62 336 1.0 2.0 0.00 0.00 0.00 87 1014.6
20260508031504 62 337 1.0 2.0 0.00 0.00 0.00 87 1014.6
20260508031004 62 343 1.0 2.0 0.00 0.00 0.00 86 1014.6
20260508030504 62 114 0.0 1.0 0.00 0.00 0.00 86 1014.6
20260508030025 62 124 0.0 1.0 0.00 0.00 0.00 85 1014.8
20260508025525 62 137 0.0 1.0 0.00 0.00 0.00 85 1014.9
20260508025025 62 142 0.0 1.0 0.00 0.00 0.00 85 1015.0
20260508024525 62 326 1.0 2.0 0.00 0.00 0.00 85 1015.1
20260508024004 63 335 1.0 2.0 0.00 0.00 0.00 85 1015.0
20260508023504 63 348 1.0 2.0 0.00 0.00 0.00 85 1014.9
20260508023004 63 339 0.0 1.0 0.00 0.00 0.00 85 1014.7
20260508022504 63 316 0.0 2.0 0.00 0.00 0.00 85 1014.7
20260508022003 63 311 0.0 2.0 0.00 0.00 0.00 85 1014.8
20260508021504 63 29 0.0 1.0 0.00 0.00 0.00 84 1014.5
20260508021004 63 343 0.0 1.0 0.00 0.00 0.00 84 1014.6
20260508020525 63 337 1.0 2.0 0.00 0.00 0.00 84 1014.6
20260508020004 64 9 1.0 2.0 0.00 0.00 0.00 84 1014.4
20260508015525 64 24 1.0 2.0 0.00 0.00 0.00 83 1014.4
20260508015004 64 356 1.0 2.0 0.00 0.00 0.00 83 1014.5
20260508014504 64 352 1.0 2.0 0.00 0.00 0.00 83 1014.8
20260508014025 64 354 1.0 3.0 0.00 0.00 0.00 83 1014.6
20260508013504 64 54 1.0 3.0 0.00 0.00 0.00 84 1014.6
20260508013005 64 75 1.0 2.0 0.00 0.00 0.00 83 1014.6
20260508012504 64 334 1.0 2.0 0.00 0.00 0.00 83 1014.7
20260508012004 65 325 1.0 2.0 0.00 0.00 0.00 83 1014.9
20260508011524 65 306 1.0 2.0 0.00 0.00 0.00 83 1015.0
20260508011004 65 296 1.0 3.0 0.00 0.00 0.00 83 1014.7
20260508010504 65 343 2.0 3.0 0.00 0.00 0.00 82 1014.3
20260508010004 65 346 2.0 3.0 0.00 0.00 0.00 83 1014.0
20260508005503 65 330 1.0 2.0 0.00 0.00 0.00 82 1014.1
20260508005003 65 315 1.0 2.0 0.00 0.00 0.00 81 1014.2
20260508004504 66 321 1.0 3.0 0.00 0.00 0.00 81 1014.3
20260508004004 66 123 1.0 3.0 0.00 0.00 0.00 80 1014.0
20260508003504 66 72 1.0 2.0 0.00 0.00 0.00 80 1014.1
20260508003004 66 76 1.0 2.0 0.00 0.00 0.00 81 1014.3
20260508002525 66 359 0.0 2.0 0.00 0.00 0.00 80 1014.6
20260508002004 67 320 1.0 2.0 0.00 0.00 0.00 79 1014.8
20260508001504 67 333 1.0 2.0 0.00 0.00 0.00 78 1014.6
20260508001003 67 333 1.0 2.0 0.00 0.00 0.00 78 1014.3
20260508000504 67 335 1.0 2.0 0.00 0.00 0.00 77 1014.4
20260508000004 67 309 1.0 2.0 0.00 0.00 0.00 77 1014.1
20260507235504 67 327 1.0 3.0 0.00 0.00 0.00 77 1014.2
20260507235004 68 355 1.0 3.0 0.00 0.00 0.00 78 1013.5
20260507234504 68 64 1.0 3.0 0.00 0.00 0.00 75 1013.4
20260507234004 68 118 1.0 3.0 0.00 0.00 0.00 77 1013.2
20260507233504 68 151 1.0 3.0 0.00 0.00 0.00 78 1013.9
20260507233024 68 290 1.0 3.0 0.00 0.00 0.00 78 1014.6
20260507232504 68 336 1.0 3.0 0.00 0.00 0.00 78 1014.5
20260507232004 69 58 1.0 2.0 0.00 0.00 0.00 77 1014.0